,,,PA_Meas_PMT16A,,PR_Meas_QMR101_102,,RH_Meas_QMH101,,SR_Meas_QMS101,,TA_Meas_QMH101,,GenWind,,GenWind,
date,time,status,PA,status,PR,status,RH,status,SR,status,TA,status,DirAvg,status,SpdAvg,
2009-01-03, 00:00:04,VALID,1003.36,VALID,0,VALID,83.8185,VALID,0,VALID,26.8603,VALID,32,VALID,0.838281,
2009-01-03, 00:01:04,VALID,1003.33,VALID,0,VALID,83.9101,VALID,0,VALID,26.7998,VALID,20,VALID,1.06914,
2009-01-03, 00:02:04,VALID,1003.36,VALID,0,VALID,83.8109,VALID,0,VALID,26.8214,VALID,26,VALID,1.53594,
2009-01-03, 00:03:04,VALID,1003.33,VALID,0,VALID,83.9253,VALID,0,VALID,26.8408,VALID,14,VALID,1.14766,
2009-01-03, 00:04:04,VALID,1003.34,VALID,0,VALID,83.8261,VALID,0,VALID,26.8193,VALID,34,VALID,1.58789,
2009-01-03, 00:05:04,VALID,1003.37,VALID,0,VALID,83.8261,VALID,0,VALID,26.8603,VALID,29,VALID,1.08594,
2009-01-03, 00:06:04,VALID,1003.35,VALID,0,VALID,83.8643,VALID,0,VALID,26.8388,VALID,36,VALID,1.37969,
2009-01-03, 00:07:04,VALID,1003.37,VALID,0,VALID,83.7956,VALID,0,VALID,26.8583,VALID,39,VALID,1.07578,
2009-01-03, 00:08:04,VALID,1003.41,VALID,0,VALID,83.7041,VALID,0,VALID,26.8603,VALID,24,VALID,0.959375,
2009-01-03, 00:09:04,VALID,1003.39,VALID,0,VALID,83.6354,VALID,0,VALID,26.9188,VALID,18,VALID,0.653906,
2009-01-03, 00:10:04,VALID,1003.43,VALID,0,VALID,83.4752,VALID,0,VALID,26.8973,VALID,24,VALID,1.27734,
2009-01-03, 00:11:04,VALID,1003.43,VALID,0,VALID,83.521,VALID,0,VALID,26.9167,VALID,38,VALID,1.02734,
2009-01-03, 00:12:04,VALID,1003.46,VALID,0,VALID,83.254,VALID,0,VALID,26.9167,VALID,23,VALID,1.42813,
2009-01-03, 00:13:04,VALID,1003.46,VALID,0,VALID,83.2463,VALID,0,VALID,26.9967,VALID,21,VALID,1.14414,
2009-01-03, 00:14:04,VALID,1003.46,VALID,0,VALID,83.254,VALID,0,VALID,27.0162,VALID,22,VALID,0.921094,
2009-01-03, 00:15:04,VALID,1003.43,VALID,0,VALID,83.1395,VALID,0,VALID,26.9947,VALID,39,VALID,1.01484,
2009-01-03, 00:16:04,VALID,1003.4,VALID,0,VALID,83.254,VALID,0,VALID,27.0142,VALID,22,VALID,0.983203,
2009-01-03, 00:17:04,VALID,1003.41,VALID,0,VALID,83.4065,VALID,0,VALID,26.9967,VALID,8,VALID,0.704687,
2009-01-03, 00:18:04,VALID,1003.39,VALID,0,VALID,83.6202,VALID,0,VALID,26.9362,VALID,21,VALID,0.844141,
2009-01-03, 00:19:04,VALID,1003.41,VALID,0,VALID,83.6812,VALID,0,VALID,26.9578,VALID,8,VALID,0.876953,
2009-01-03, 00:20:04,VALID,1003.38,VALID,0,VALID,83.9177,VALID,0,VALID,26.8973,VALID,31,VALID,0.944141,
2009-01-03, 00:21:04,VALID,1003.36,VALID,0,VALID,83.7727,VALID,0,VALID,26.8973,VALID,32,VALID,1.4957,
2009-01-03, 00:22:04,VALID,1003.36,VALID,0,VALID,83.8719,VALID,0,VALID,26.9578,VALID,25,VALID,0.712891,
2009-01-03, 00:23:04,VALID,1003.35,VALID,0,VALID,83.6964,VALID,0,VALID,26.9383,VALID,10,VALID,1.02695,
2009-01-03, 00:24:04,VALID,1003.35,VALID,0,VALID,83.6507,VALID,0,VALID,26.9752,VALID,34,VALID,1.21719,
2009-01-03, 00:25:04,VALID,1003.32,VALID,0,VALID,83.6125,VALID,0,VALID,27.0162,VALID,30,VALID,0.719141,
2009-01-03, 00:26:04,VALID,1003.32,VALID,0,VALID,83.6888,VALID,0,VALID,27.0162,VALID,24,VALID,0.771094,
2009-01-03, 00:27:04,VALID,1003.31,VALID,0,VALID,83.5591,VALID,0,VALID,26.9947,VALID,26,VALID,1.01484,
2009-01-03, 00:28:04,VALID,1003.26,VALID,0,VALID,83.5286,VALID,0,VALID,27.0162,VALID,34,VALID,0.956641,
2009-01-03, 00:29:04,VALID,1003.21,VALID,0,VALID,83.3379,VALID,0,VALID,27.0162,VALID,22,VALID,1.34961,
2009-01-03, 00:30:04,VALID,1003.2,VALID,0,VALID,83.2921,VALID,0,VALID,27.0357,VALID,20,VALID,1.45508,
2009-01-03, 00:31:04,VALID,1003.17,VALID,0,VALID,83.0709,VALID,0,VALID,27.0531,VALID,38,VALID,1.02148,
2009-01-03, 00:32:04,VALID,1003.13,VALID,0,VALID,83.2311,VALID,0,VALID,27.1136,VALID,326,VALID,0.636719,
2009-01-03, 00:33:04,VALID,1003.14,VALID,0,VALID,83.4828,VALID,0,VALID,27.0531,VALID,12,VALID,0.825391,
2009-01-03, 00:34:04,VALID,1003.09,VALID,0,VALID,83.4676,VALID,0,VALID,26.9947,VALID,17,VALID,0.750781,
2009-01-03, 00:35:04,VALID,1003.09,VALID,0,VALID,83.4752,VALID,0,VALID,27.0162,VALID,37,VALID,1.53672,
2009-01-03, 00:36:04,VALID,1003.08,VALID,0,VALID,83.3913,VALID,0,VALID,27.0357,VALID,38,VALID,1.2832,
2009-01-03, 00:37:04,VALID,1003.09,VALID,0,VALID,83.2158,VALID,0,VALID,27.0747,VALID,29,VALID,1.53398,
2009-01-03, 00:38:04,VALID,1003.11,VALID,0,VALID,83.1777,VALID,0,VALID,27.0531,VALID,39,VALID,0.864453,
2009-01-03, 00:39:04,VALID,1003.13,VALID,0,VALID,83.1624,VALID,0,VALID,27.0942,VALID,25,VALID,1.45234,
2009-01-03, 00:40:04,VALID,1003.15,VALID,0,VALID,83.2235,VALID,0.100563,VALID,27.1116,VALID,23,VALID,1.07383,
2009-01-03, 00:41:04,VALID,1003.15,VALID,0,VALID,83.4218,VALID,0,VALID,27.0921,VALID,32,VALID,1.17852,
2009-01-03, 00:42:04,VALID,1003.15,VALID,0,VALID,83.2463,VALID,0,VALID,27.0726,VALID,38,VALID,1.61523,
2009-01-03, 00:43:04,VALID,1003.16,VALID,0,VALID,83.2997,VALID,0,VALID,27.0921,VALID,30,VALID,1.07344,
2009-01-03, 00:44:04,VALID,1003.15,VALID,0,VALID,83.1395,VALID,0.100563,VALID,27.09,VALID,28,VALID,1.31367,
2009-01-03, 00:45:04,VALID,1003.15,VALID,0,VALID,83.0861,VALID,0,VALID,27.1311,VALID,29,VALID,1.05156,
2009-01-03, 00:46:04,VALID,1003.15,VALID,0,VALID,82.9488,VALID,0,VALID,27.1506,VALID,352,VALID,1.23984,
2009-01-03, 00:47:04,VALID,1003.16,VALID,0,VALID,83.1167,VALID,0.100563,VALID,27.1506,VALID,47,VALID,0.809766,
2009-01-03, 00:48:04,VALID,1003.16,VALID,0,VALID,82.781,VALID,0.100563,VALID,27.1895,VALID,27,VALID,1.29219,
2009-01-03, 00:49:04,VALID,1003.18,VALID,0,VALID,83.0098,VALID,0,VALID,27.168,VALID,20,VALID,0.940625,
2009-01-03, 00:50:04,VALID,1003.17,VALID,0,VALID,82.9564,VALID,0,VALID,27.1506,VALID,11,VALID,1.02031,
2009-01-03, 00:51:04,VALID,1003.13,VALID,0,VALID,83.0861,VALID,0,VALID,27.1506,VALID,66,VALID,0.533203,
2009-01-03, 00:52:04,VALID,1003.16,VALID,0,VALID,83.3074,VALID,0,VALID,27.1311,VALID,21,VALID,0.576953,
2009-01-03, 00:53:04,VALID,1003.15,VALID,0,VALID,83.1777,VALID,0,VALID,27.1116,VALID,16,VALID,0.982031,
2009-01-03, 00:54:04,VALID,1003.14,VALID,0,VALID,83.2616,VALID,0,VALID,27.1116,VALID,26,VALID,1.08008,
2009-01-03, 00:55:04,VALID,1003.11,VALID,0,VALID,83.3379,VALID,0.100563,VALID,27.1116,VALID,19,VALID,0.548047,
2009-01-03, 00:56:04,VALID,1003.08,VALID,0,VALID,83.2006,VALID,0,VALID,27.1116,VALID,29,VALID,0.908984,
2009-01-03, 00:57:04,VALID,1003.04,VALID,0,VALID,83.0632,VALID,0.100563,VALID,27.1311,VALID,25,VALID,1.22695,
2009-01-03, 00:58:04,VALID,1003.01,VALID,0,VALID,82.9183,VALID,0,VALID,27.129,VALID,11,VALID,0.478516,
2009-01-03, 00:59:04,VALID,1003,VALID,0,VALID,82.6589,VALID,0,VALID,27.1506,VALID,3,VALID,1.26133,
2009-01-03, 01:00:04,VALID,1002.98,VALID,0,VALID,82.8954,VALID,0,VALID,27.1506,VALID,27,VALID,0.887109,
2009-01-03, 01:01:04,VALID,1002.93,VALID,0,VALID,82.9488,VALID,0.100563,VALID,27.1311,VALID,25,VALID,0.911719,
2009-01-03, 01:02:04,VALID,1002.93,VALID,0,VALID,83.3379,VALID,0,VALID,27.0921,VALID,21,VALID,0.554297,
2009-01-03, 01:03:04,VALID,1002.94,VALID,0,VALID,83.3226,VALID,0.100563,VALID,27.0511,VALID,7,VALID,0.635156,
2009-01-03, 01:04:04,VALID,1002.93,VALID,0,VALID,82.9946,VALID,0.100563,VALID,27.0511,VALID,25,VALID,1.26914,
2009-01-03, 01:05:04,VALID,1002.92,VALID,0,VALID,82.9107,VALID,0,VALID,27.0706,VALID,49,VALID,0.766406,
2009-01-03, 01:06:04,VALID,1002.91,VALID,0,VALID,82.9183,VALID,0.100563,VALID,27.09,VALID,25,VALID,1.00352,
2009-01-03, 01:07:04,VALID,1002.88,VALID,0,VALID,82.9259,VALID,0.100563,VALID,27.0511,VALID,22,VALID,1.31172,
2009-01-03, 01:08:04,VALID,1002.9,VALID,0,VALID,83.2082,VALID,0.100563,VALID,27.0531,VALID,31,VALID,0.48125,
2009-01-03, 01:09:04,VALID,1002.87,VALID,0,VALID,83.2387,VALID,0,VALID,27.0142,VALID,27,VALID,0.763281,
2009-01-03, 01:10:04,VALID,1002.84,VALID,0,VALID,83.4371,VALID,0.100563,VALID,26.9947,VALID,26,VALID,0.839063,
2009-01-03, 01:11:04,VALID,1002.82,VALID,0,VALID,83.2921,VALID,0.100563,VALID,26.9947,VALID,17,VALID,1.03203,
2009-01-03, 01:12:04,VALID,1002.81,VALID,0,VALID,83.4065,VALID,0,VALID,27.0142,VALID,21,VALID,0.586719,
2009-01-03, 01:13:04,VALID,1002.81,VALID,0,VALID,83.1624,VALID,0,VALID,26.9752,VALID,30,VALID,1.44922,
2009-01-03, 01:14:04,VALID,1002.8,VALID,0,VALID,83.3226,VALID,0,VALID,26.9947,VALID,10,VALID,0.982422,
2009-01-03, 01:15:04,VALID,1002.77,VALID,0,VALID,83.1853,VALID,0.100563,VALID,26.9732,VALID,14,VALID,0.973828,
2009-01-03, 01:16:04,VALID,1002.75,VALID,0,VALID,83.2158,VALID,0.100563,VALID,26.9732,VALID,27,VALID,0.890625,
2009-01-03, 01:17:04,VALID,1002.73,VALID,0,VALID,83.3837,VALID,0,VALID,26.9537,VALID,18,VALID,0.507813,
2009-01-03, 01:18:04,VALID,1002.73,VALID,0,VALID,83.4981,VALID,0,VALID,26.9147,VALID,15,VALID,0.458984,
2009-01-03, 01:19:04,VALID,1002.72,VALID,0,VALID,83.6736,VALID,0,VALID,26.9167,VALID,11,VALID,0.569922,
2009-01-03, 01:20:04,VALID,1002.66,VALID,0,VALID,83.4065,VALID,0,VALID,26.9147,VALID,21,VALID,1.60273,
2009-01-03, 01:21:04,VALID,1002.66,VALID,0,VALID,83.2616,VALID,0.100563,VALID,26.9557,VALID,27,VALID,1.01328,
2009-01-03, 01:22:04,VALID,1002.65,VALID,0,VALID,83.3837,VALID,0,VALID,26.9537,VALID,9,VALID,0.697656,
2009-01-03, 01:23:04,VALID,1002.63,VALID,0,VALID,83.4447,VALID,0.100563,VALID,26.9362,VALID,55,VALID,0.878125,
2009-01-03, 01:24:04,VALID,1002.63,VALID,0,VALID,83.4981,VALID,0.100563,VALID,26.9362,VALID,40,VALID,0.824609,
2009-01-03, 01:25:04,VALID,1002.62,VALID,0,VALID,83.6964,VALID,0,VALID,26.9383,VALID,12,VALID,0.764063,
2009-01-03, 01:26:04,VALID,1002.63,VALID,0,VALID,83.3455,VALID,0,VALID,26.9188,VALID,352,VALID,0.8125,
2009-01-03, 01:27:04,VALID,1002.6,VALID,0,VALID,83.46,VALID,0,VALID,26.9578,VALID,47,VALID,0.479688,
2009-01-03, 01:28:04,VALID,1002.61,VALID,0,VALID,83.6659,VALID,0,VALID,26.8993,VALID,40,VALID,0.615625,
2009-01-03, 01:29:04,VALID,1002.63,VALID,0,VALID,83.7651,VALID,0,VALID,26.8603,VALID,30,VALID,1.08711,
2009-01-03, 01:30:04,VALID,1002.64,VALID,0,VALID,83.9177,VALID,0,VALID,26.8408,VALID,58,VALID,0.504297,
2009-01-03, 01:31:04,VALID,1002.65,VALID,0,VALID,84.0016,VALID,0,VALID,26.8408,VALID,22,VALID,0.556641,
2009-01-03, 01:32:04,VALID,1002.65,VALID,0,VALID,84.1771,VALID,0,VALID,26.7998,VALID,30,VALID,0.9125,
2009-01-03, 01:33:04,VALID,1002.66,VALID,0,VALID,84.4364,VALID,0,VALID,26.7434,VALID,32,VALID,0.89375,
2009-01-03, 01:34:04,VALID,1002.64,VALID,0,VALID,84.4288,VALID,0,VALID,26.7434,VALID,32,VALID,0.954687,
2009-01-03, 01:35:04,VALID,1002.68,VALID,0,VALID,84.4975,VALID,0,VALID,26.7434,VALID,29,VALID,0.544531,
2009-01-03, 01:36:04,VALID,1002.7,VALID,0,VALID,84.5051,VALID,0,VALID,26.7239,VALID,30,VALID,0.960938,
2009-01-03, 01:37:04,VALID,1002.69,VALID,0,VALID,84.3983,VALID,0,VALID,26.7434,VALID,24,VALID,1.25352,
2009-01-03, 01:38:04,VALID,1002.72,VALID,0,VALID,84.4441,VALID,0,VALID,26.7629,VALID,25,VALID,0.782031,
2009-01-03, 01:39:04,VALID,1002.72,VALID,0,VALID,84.4593,VALID,0,VALID,26.7024,VALID,35,VALID,0.849219,
2009-01-03, 01:40:04,VALID,1002.69,VALID,0,VALID,84.589,VALID,0,VALID,26.7045,VALID,39,VALID,0.508984,
2009-01-03, 01:41:04,VALID,1002.68,VALID,0,VALID,84.6272,VALID,0,VALID,26.7045,VALID,6,VALID,1.09063,
2009-01-03, 01:42:04,VALID,1002.69,VALID,0,VALID,84.7263,VALID,0,VALID,26.7045,VALID,35,VALID,0.676953,
2009-01-03, 01:43:04,VALID,1002.68,VALID,0,VALID,84.6272,VALID,0,VALID,26.6655,VALID,38,VALID,1.36289,
2009-01-03, 01:44:04,VALID,1002.66,VALID,0,VALID,84.6806,VALID,0,VALID,26.685,VALID,40,VALID,1.37305,
2009-01-03, 01:45:04,VALID,1002.64,VALID,0,VALID,84.7035,VALID,0,VALID,26.7239,VALID,32,VALID,0.547266,
2009-01-03, 01:46:04,VALID,1002.63,VALID,0,VALID,84.6806,VALID,0,VALID,26.683,VALID,30,VALID,0.715234,
2009-01-03, 01:47:04,VALID,1002.6,VALID,0,VALID,84.8255,VALID,0,VALID,26.6655,VALID,23,VALID,1.02578,
2009-01-03, 01:48:04,VALID,1002.58,VALID,0,VALID,84.94,VALID,0,VALID,26.6265,VALID,33,VALID,0.896484,
2009-01-03, 01:49:04,VALID,1002.58,VALID,0,VALID,85.0315,VALID,0,VALID,26.605,VALID,28,VALID,0.840625,
2009-01-03, 01:50:04,VALID,1002.61,VALID,0,VALID,85.0544,VALID,0,VALID,26.607,VALID,33,VALID,1.32656,
2009-01-03, 01:51:04,VALID,1002.58,VALID,0,VALID,85.0468,VALID,0,VALID,26.605,VALID,27,VALID,1.12734,
2009-01-03, 01:52:04,VALID,1002.57,VALID,0,VALID,85.1307,VALID,0,VALID,26.6265,VALID,36,VALID,0.811328,
2009-01-03, 01:53:04,VALID,1002.57,VALID,0,VALID,85.1612,VALID,0,VALID,26.5855,VALID,17,VALID,0.656641,
2009-01-03, 01:54:04,VALID,1002.57,VALID,0,VALID,85.1536,VALID,0,VALID,26.5855,VALID,33,VALID,0.905859,
2009-01-03, 01:55:04,VALID,1002.53,VALID,0,VALID,85.1536,VALID,0.100563,VALID,26.5835,VALID,33,VALID,0.958203,
2009-01-03, 01:56:04,VALID,1002.54,VALID,0,VALID,85.1993,VALID,0.100563,VALID,26.5641,VALID,30,VALID,0.782422,
2009-01-03, 01:57:04,VALID,1002.53,VALID,0,VALID,85.3214,VALID,0.100563,VALID,26.5855,VALID,21,VALID,0.865234,
2009-01-03, 01:58:04,VALID,1002.56,VALID,0,VALID,85.5426,VALID,0.100563,VALID,26.5466,VALID,9,VALID,0.64375,
2009-01-03, 01:59:04,VALID,1002.52,VALID,0,VALID,85.4282,VALID,0,VALID,26.5661,VALID,37,VALID,0.953125,
2009-01-03, 02:00:04,VALID,1002.52,VALID,0,VALID,85.474,VALID,0.100563,VALID,26.5641,VALID,21,VALID,0.6875,
2009-01-03, 02:01:04,VALID,1002.54,VALID,0,VALID,85.3824,VALID,0.100563,VALID,26.5446,VALID,37,VALID,0.995313,
2009-01-03, 02:02:04,VALID,1002.53,VALID,0,VALID,85.2985,VALID,0.100563,VALID,26.5835,VALID,35,VALID,0.873828,
2009-01-03, 02:03:04,VALID,1002.54,VALID,0,VALID,85.1002,VALID,0.100563,VALID,26.6225,VALID,32,VALID,0.925,
2009-01-03, 02:04:04,VALID,1002.5,VALID,0,VALID,85.1536,VALID,0.100563,VALID,26.6225,VALID,25,VALID,0.630469,
2009-01-03, 02:05:04,VALID,1002.53,VALID,0,VALID,85.3367,VALID,0.100563,VALID,26.6245,VALID,25,VALID,0.373828,
2009-01-03, 02:06:04,VALID,1002.51,VALID,0,VALID,85.6113,VALID,0.100563,VALID,26.5855,VALID,25,VALID,0.415234,
2009-01-03, 02:07:04,VALID,1002.5,VALID,0,VALID,85.802,VALID,0.100563,VALID,26.5251,VALID,26,VALID,0.482031,
2009-01-03, 02:08:04,VALID,1002.53,VALID,0,VALID,85.7334,VALID,0,VALID,26.5271,VALID,33,VALID,0.466797,
2009-01-03, 02:09:04,VALID,1002.52,VALID,0,VALID,85.7028,VALID,0.100563,VALID,26.5271,VALID,26,VALID,0.751953,
2009-01-03, 02:10:04,VALID,1002.56,VALID,0,VALID,85.6342,VALID,0,VALID,26.5486,VALID,35,VALID,0.587109,
2009-01-03, 02:11:04,VALID,1002.52,VALID,0,VALID,85.5655,VALID,0,VALID,26.5681,VALID,37,VALID,0.377344,
2009-01-03, 02:12:04,VALID,1002.51,VALID,0,VALID,85.6571,VALID,0,VALID,26.5681,VALID,35,VALID,0,
2009-01-03, 02:13:04,VALID,1002.54,VALID,0,VALID,85.7868,VALID,0,VALID,26.5681,VALID,35,VALID,0.256641,
2009-01-03, 02:14:04,VALID,1002.49,VALID,0,VALID,85.6647,VALID,0,VALID,26.5076,VALID,35,VALID,0.532812,
2009-01-03, 02:15:04,VALID,1002.5,VALID,0,VALID,85.7562,VALID,0,VALID,26.5291,VALID,19,VALID,0.535937,
2009-01-03, 02:16:04,VALID,1002.5,VALID,0,VALID,85.8631,VALID,0,VALID,26.5486,VALID,18,VALID,0.280078,
2009-01-03, 02:17:04,VALID,1002.5,VALID,0,VALID,85.8402,VALID,0,VALID,26.5486,VALID,20,VALID,0.298828,
2009-01-03, 02:18:04,VALID,1002.47,VALID,0,VALID,85.8631,VALID,0,VALID,26.4881,VALID,20,VALID,0.182812,
2009-01-03, 02:19:04,VALID,1002.45,VALID,0,VALID,86.0767,VALID,0,VALID,26.4901,VALID,20,VALID,0.232422,
2009-01-03, 02:20:04,VALID,1002.44,VALID,0,VALID,86.3437,VALID,0,VALID,26.4901,VALID,20,VALID,0.212109,
2009-01-03, 02:21:04,VALID,1002.42,VALID,0,VALID,86.3666,VALID,0,VALID,26.3907,VALID,20,VALID,0.178516,
2009-01-03, 02:22:04,VALID,1002.4,VALID,0,VALID,86.6565,VALID,0,VALID,26.3927,VALID,20,VALID,0.00117188,
2009-01-03, 02:23:04,VALID,1002.39,VALID,0,VALID,86.6793,VALID,0,VALID,26.3538,VALID,20,VALID,0.504297,
2009-01-03, 02:24:04,VALID,1002.41,VALID,0,VALID,86.9464,VALID,0,VALID,26.3148,VALID,21,VALID,0.430469,
2009-01-03, 02:25:04,VALID,1002.4,VALID,0,VALID,87.2057,VALID,0,VALID,26.2933,VALID,21,VALID,0,
2009-01-03, 02:26:04,VALID,1002.39,VALID,0,VALID,87.1981,VALID,0.100563,VALID,26.2544,VALID,30,VALID,0.698438,
2009-01-03, 02:27:04,VALID,1002.36,VALID,0,VALID,87.4117,VALID,0,VALID,26.2544,VALID,29,VALID,0,
2009-01-03, 02:28:04,VALID,1002.33,VALID,0,VALID,87.4193,VALID,0.100563,VALID,26.2329,VALID,29,VALID,0.164063,
2009-01-03, 02:29:04,VALID,1002.38,VALID,0,VALID,87.6558,VALID,0.100563,VALID,26.2349,VALID,350,VALID,0.412891,
2009-01-03, 02:30:04,VALID,1002.37,VALID,0,VALID,87.7474,VALID,0.100563,VALID,26.155,VALID,309,VALID,0.108984,
2009-01-03, 02:31:05,VALID,1002.37,VALID,0,VALID,88.0144,VALID,0.100563,VALID,26.1375,VALID,294,VALID,0.260547,
2009-01-03, 02:32:04,VALID,1002.38,VALID,0,VALID,88.2585,VALID,0.100563,VALID,26.0985,VALID,294,VALID,0,
2009-01-03, 02:33:04,VALID,1002.36,VALID,0,VALID,88.5408,VALID,0.100563,VALID,26.0381,VALID,294,VALID,0,
2009-01-03, 02:34:05,VALID,1002.36,VALID,0,VALID,88.6781,VALID,0.100563,VALID,26.0206,VALID,294,VALID,0.105859,
2009-01-03, 02:35:05,VALID,1002.33,VALID,0,VALID,88.8993,VALID,0.100563,VALID,25.9408,VALID,294,VALID,0.0535156,
2009-01-03, 02:36:05,VALID,1002.32,VALID,0,VALID,88.968,VALID,0,VALID,25.9232,VALID,294,VALID,0.215625,
2009-01-03, 02:37:05,VALID,1002.32,VALID,0,VALID,89.0901,VALID,0.100563,VALID,25.8629,VALID,295,VALID,0.288281,
2009-01-03, 02:38:05,VALID,1002.32,VALID,0,VALID,89.3037,VALID,0.100563,VALID,25.8044,VALID,295,VALID,0.167578,
2009-01-03, 02:39:05,VALID,1002.25,VALID,0,VALID,89.4944,VALID,0.100563,VALID,25.7655,VALID,296,VALID,0.295703,
2009-01-03, 02:40:05,VALID,1002.25,VALID,0,VALID,89.6317,VALID,0,VALID,25.7285,VALID,296,VALID,0,
2009-01-03, 02:41:05,VALID,1002.27,VALID,0,VALID,89.7538,VALID,0,VALID,25.7109,VALID,297,VALID,0.442187,
2009-01-03, 02:42:05,VALID,1002.25,VALID,0,VALID,89.975,VALID,0,VALID,25.6525,VALID,297,VALID,0.291016,
2009-01-03, 02:43:05,VALID,1002.29,VALID,0,VALID,90.2268,VALID,0,VALID,25.6116,VALID,297,VALID,0.158984,
2009-01-03, 02:44:05,VALID,1002.26,VALID,0,VALID,90.4022,VALID,0,VALID,25.5941,VALID,297,VALID,0.0328125,
2009-01-03, 02:45:05,VALID,1002.24,VALID,0,VALID,90.6235,VALID,0,VALID,25.5746,VALID,297,VALID,0,
2009-01-03, 02:46:05,VALID,1002.25,VALID,0,VALID,90.7989,VALID,0,VALID,25.4948,VALID,297,VALID,0,
2009-01-03, 02:47:05,VALID,1002.22,VALID,0,VALID,90.921,VALID,0,VALID,25.4753,VALID,297,VALID,0,
2009-01-03, 02:48:05,VALID,1002.23,VALID,0,VALID,90.9897,VALID,0,VALID,25.4363,VALID,297,VALID,0,
2009-01-03, 02:49:05,VALID,1002.21,VALID,0,VALID,91.0202,VALID,0,VALID,25.4383,VALID,297,VALID,0,
2009-01-03, 02:50:05,VALID,1002.22,VALID,0,VALID,91.1956,VALID,0,VALID,25.3974,VALID,296,VALID,0,
2009-01-03, 02:51:05,VALID,1002.18,VALID,0,VALID,91.2643,VALID,0,VALID,25.3798,VALID,297,VALID,0,
2009-01-03, 02:52:05,VALID,1002.18,VALID,0,VALID,91.4016,VALID,0,VALID,25.3584,VALID,296,VALID,0.00195313,
2009-01-03, 02:53:05,VALID,1002.18,VALID,0,VALID,91.5008,VALID,0,VALID,25.3195,VALID,296,VALID,0,
2009-01-03, 02:54:05,VALID,1002.17,VALID,0,VALID,91.5847,VALID,0,VALID,25.3214,VALID,296,VALID,0,
2009-01-03, 02:55:05,VALID,1002.15,VALID,0,VALID,91.6839,VALID,0.100563,VALID,25.2786,VALID,296,VALID,0,
2009-01-03, 02:56:05,VALID,1002.17,VALID,0,VALID,91.7831,VALID,0,VALID,25.2592,VALID,296,VALID,0,
2009-01-03, 02:57:05,VALID,1002.16,VALID,0,VALID,91.8822,VALID,0.100563,VALID,25.2397,VALID,296,VALID,0.169922,
2009-01-03, 02:58:05,VALID,1002.14,VALID,0,VALID,91.9356,VALID,0,VALID,25.2202,VALID,296,VALID,0,
2009-01-03, 02:59:05,VALID,1002.15,VALID,0,VALID,92.0653,VALID,0.100563,VALID,25.2007,VALID,296,VALID,0.0316406,
2009-01-03, 03:00:05,VALID,1002.12,VALID,0,VALID,92.1492,VALID,0,VALID,25.1813,VALID,296,VALID,0.259766,
2009-01-03, 03:01:05,VALID,1002.13,VALID,0,VALID,92.2332,VALID,0.100563,VALID,25.1618,VALID,296,VALID,0,
2009-01-03, 03:02:05,VALID,1002.12,VALID,0,VALID,92.2713,VALID,0,VALID,25.1423,VALID,296,VALID,0.00195313,
2009-01-03, 03:03:05,VALID,1002.12,VALID,0,VALID,92.3476,VALID,0.100563,VALID,25.1229,VALID,296,VALID,0.150391,
2009-01-03, 03:04:05,VALID,1002.1,VALID,0,VALID,92.3857,VALID,0.100563,VALID,25.1034,VALID,296,VALID,0,
2009-01-03, 03:05:05,VALID,1002.13,VALID,0,VALID,92.4315,VALID,0.100563,VALID,25.0839,VALID,296,VALID,0,
2009-01-03, 03:06:05,VALID,1002.15,VALID,0,VALID,92.4925,VALID,0,VALID,25.0877,VALID,296,VALID,0,
2009-01-03, 03:07:05,VALID,1002.16,VALID,0,VALID,92.5688,VALID,0,VALID,25.0469,VALID,296,VALID,0,
2009-01-03, 03:08:05,VALID,1002.16,VALID,0,VALID,92.6451,VALID,0,VALID,25.0079,VALID,296,VALID,0,
2009-01-03, 03:09:05,VALID,1002.13,VALID,0,VALID,92.7443,VALID,0,VALID,25.0274,VALID,296,VALID,0,
2009-01-03, 03:10:05,VALID,1002.18,VALID,0,VALID,92.7748,VALID,0,VALID,24.9885,VALID,296,VALID,0,
2009-01-03, 03:11:05,VALID,1002.15,VALID,0,VALID,92.7672,VALID,0,VALID,24.9495,VALID,296,VALID,0,
2009-01-03, 03:12:05,VALID,1002.17,VALID,0,VALID,92.813,VALID,0,VALID,24.93,VALID,296,VALID,0,
2009-01-03, 03:13:05,VALID,1002.17,VALID,0,VALID,92.8587,VALID,0,VALID,24.93,VALID,296,VALID,0,
2009-01-03, 03:14:05,VALID,1002.16,VALID,0,VALID,92.874,VALID,0,VALID,24.9106,VALID,296,VALID,0,
2009-01-03, 03:15:05,VALID,1002.16,VALID,0,VALID,92.9198,VALID,0,VALID,24.8911,VALID,296,VALID,0,
2009-01-03, 03:16:05,VALID,1002.13,VALID,0,VALID,92.9655,VALID,0,VALID,24.8522,VALID,296,VALID,0,
2009-01-03, 03:17:05,VALID,1002.14,VALID,0,VALID,93.0113,VALID,0,VALID,24.8522,VALID,296,VALID,0,
2009-01-03, 03:18:05,VALID,1002.12,VALID,0,VALID,93.0495,VALID,0,VALID,24.7937,VALID,296,VALID,0,
2009-01-03, 03:19:05,VALID,1002.12,VALID,0,VALID,93.1486,VALID,0,VALID,24.7937,VALID,296,VALID,0,
2009-01-03, 03:20:05,VALID,1002.11,VALID,0,VALID,93.1257,VALID,0,VALID,24.7529,VALID,296,VALID,0.178516,
2009-01-03, 03:21:05,VALID,1002.13,VALID,0,VALID,93.1105,VALID,0,VALID,24.7548,VALID,296,VALID,0.150391,
2009-01-03, 03:22:05,VALID,1002.13,VALID,0,VALID,93.1334,VALID,0,VALID,24.7159,VALID,296,VALID,0.141406,
2009-01-03, 03:23:05,VALID,1002.12,VALID,0,VALID,93.1868,VALID,0,VALID,24.7353,VALID,296,VALID,0,
2009-01-03, 03:24:05,VALID,1002.11,VALID,0,VALID,93.2173,VALID,0,VALID,24.7159,VALID,296,VALID,0,
2009-01-03, 03:25:05,VALID,1002.12,VALID,0,VALID,93.2325,VALID,0,VALID,24.6983,VALID,296,VALID,0,
2009-01-03, 03:26:05,VALID,1002.11,VALID,0,VALID,93.2707,VALID,0,VALID,24.6769,VALID,296,VALID,0,
2009-01-03, 03:27:05,VALID,1002.11,VALID,0,VALID,93.347,VALID,0,VALID,24.6361,VALID,296,VALID,0,
2009-01-03, 03:28:05,VALID,1002.1,VALID,0,VALID,93.4004,VALID,0,VALID,24.638,VALID,296,VALID,0,
2009-01-03, 03:29:05,VALID,1002.08,VALID,0,VALID,93.4843,VALID,0,VALID,24.6361,VALID,296,VALID,0,
2009-01-03, 03:30:05,VALID,1002.08,VALID,0,VALID,93.5072,VALID,0,VALID,24.6574,VALID,296,VALID,0,
2009-01-03, 03:31:05,VALID,1002.08,VALID,0,VALID,93.5682,VALID,0,VALID,24.638,VALID,296,VALID,0,
2009-01-03, 03:32:05,VALID,1002.06,VALID,0,VALID,93.5682,VALID,0,VALID,24.638,VALID,296,VALID,0,
2009-01-03, 03:33:05,VALID,1002.04,VALID,0,VALID,93.5301,VALID,0,VALID,24.599,VALID,296,VALID,0,
2009-01-03, 03:34:05,VALID,1002.07,VALID,0,VALID,93.5453,VALID,0,VALID,24.599,VALID,296,VALID,0,
2009-01-03, 03:35:05,VALID,1002.05,VALID,0,VALID,93.5301,VALID,0,VALID,24.5796,VALID,296,VALID,0,
2009-01-03, 03:36:05,VALID,1002.08,VALID,0,VALID,93.553,VALID,0,VALID,24.5601,VALID,296,VALID,0,
2009-01-03, 03:37:05,VALID,1002.09,VALID,0,VALID,93.614,VALID,0,VALID,24.5601,VALID,296,VALID,0,
2009-01-03, 03:38:05,VALID,1002.11,VALID,0,VALID,93.6445,VALID,0,VALID,24.5601,VALID,296,VALID,0,
2009-01-03, 03:39:05,VALID,1002.11,VALID,0,VALID,93.6598,VALID,0,VALID,24.5601,VALID,296,VALID,0,
2009-01-03, 03:40:05,VALID,1002.11,VALID,0,VALID,93.6521,VALID,0,VALID,24.5601,VALID,296,VALID,0,
2009-01-03, 03:41:05,VALID,1002.13,VALID,0,VALID,93.6598,VALID,0,VALID,24.5601,VALID,296,VALID,0,
2009-01-03, 03:42:05,VALID,1002.15,VALID,0,VALID,93.6521,VALID,0,VALID,24.5212,VALID,296,VALID,0,
2009-01-03, 03:43:05,VALID,1002.14,VALID,0,VALID,93.6903,VALID,0,VALID,24.4998,VALID,296,VALID,0,
2009-01-03, 03:44:05,VALID,1002.13,VALID,0,VALID,93.7284,VALID,0,VALID,24.523,VALID,296,VALID,0,
2009-01-03, 03:45:05,VALID,1002.12,VALID,0,VALID,93.7208,VALID,0,VALID,24.5017,VALID,296,VALID,0,
2009-01-03, 03:46:05,VALID,1002.12,VALID,0,VALID,93.7513,VALID,0.100563,VALID,24.4822,VALID,296,VALID,0,